Location: Dvur Kralove nad Labem
(50.4330°N, 15.8170°E)
Time: 17:31:45
(UTC+01:00)

ISS - Pass Details

Date: 12 November 2018
Orbit: 401 x 408 km, 51.6° (Epoch: 20 November)

Event Time Altitude Azimuth Distance (km) Brightness Sun altitude
Exits shadow 04:18:51 20° 119° (ESE) 1,008 -1.3 -26.5°
Drops below altitude 10° 04:19:59 10° 116° (ESE) 1,460 -0.3 -26.3°
Sets 04:22:04 0° 114° (ESE) 2,320 1.0 -26.0°
